SCP
0 0 0 0 0 0 0 0 0 0 0 0 0 0 0 0 0 0 0 0 0 0 0 0 0 0 0 0 0 0 0 0 0 0 0 0 0 0 0 0 0 0 0 0
0 0 0 0 0 0 0 0 0 0 0 0 0 0 0 0 0 0 0 0 0 0 0 0 0 0 0 0 0 0 0 0 0 0 1 0 0 0 0 0 0 0 0 0
0 0 0 0 0 0 0 0 0 0 0 0 0 0 0 0 0 0 0 0 0 0 0 0 0 0 0 0 0 0 0 0 0 0 1 0 0 0 0 0 1 0 0 0
0 0 0 0 0 0 0 0 0 0 0 0 0 0 0 0 0 0 0 0 0 0 0 0 0 0 0 0 0 0 0 0 0 1 1 1 1 1 1 1 1 1 0 0
0 0 0 0 0 0 0 0 0 0 0 0 0 0 0 0 0 0 0 0 0 0 0 0 0 0 0 0 0 0 0 0 0 0 1 1 1 1 1 1 1 1 1 1
0 0 0 0 0 0 0 0 0 0 0 0 0 0 0 0 0 0 0 0 0 0 0 0 0 0 0 0 0 0 0 0 0 0 0 1 1 1 1 1 1 2 1 1
-0 0 0 0 0 0 0 0 0 0 0 0 0 0 0 0 0 0 0 0 0 0 0 0 0 0 0 0 0 0 0 0 0 0 0 0 1 1 1 1 2 2 1 1
0 0 0 0 0 0 0 0 0 0 0 0 0 0 0 0 0 0 0 0 0 0 0 0 0 0 0 0 0 0 0 0 0 0 0 0 0 0 0 1 1 1 1 1
0 0 0 0 0 0 0 0 0 0 0 0 0 0 0 0 0 0 0 0 0 0 0 0 0 0 0 0 0 0 0 0 0 0 0 0 0 0 0 0 0 0 0 0
0 0 0 0 0 0 0 0 0 0 0 0 0 0 0 0 0 0 0 0 0 0 0 0 0 0 0 0 0 0 0 0 0 0 0 0 0 0 0 0 0 0 0 0
0 0 0 0 0 0 0 0 0 0 0 0 0 0 0 0 0 0 0 0 0 0 0 0 0 0 0 0 0 0 0 0 0 0 0 0 0 0 0 0 0 0 0 0
0 0 0 0 0 0 0 0 0 0 0 0 0 0 0 0 0 0 0 0 0 0 0 0 0 0 0 0 0 0 0 0 0 0 0 0 0 0 0 0 0 0 0 0
-0 0 0 0 0 0 0 0 0 0 0 0 0 0 0 0 0 0 0 0 0 0 0 0 0 0 0 0 0 0 0 0 0 0 0 0 0 0 0 0 0 0 0 0
-0 -0 0 0 0 0 0 0 0 0 0 0 0 0 0 0 0 0 0 0 0 0 0 0 0 0 0 0 0 0 0 0 0 0 0 0 0 0 0 0 0 0 0 0
0 -0 -0 -0 0 0 0 0 0 0 0 0 0 0 0 0 0 0 0 0 0 0 0 0 0 0 0 0 0 0 0 0 0 0 0 0 0 0 0 0 0 0 0 0
0 -0 0 -0 -0 -0 0 0 0 0 0 0 0 0 0 0 0 0 0 0 -0 -0 -0 0 0 0 0 0 0 0 0 0 0 0 0 0 0 0 0 0 0 0 0 0
0 0 0 -0 0 -0 0 0 0 0 0 0 0 0 0 0 0 0 0 0 0 0 0 0 0 0 0 0 0 0 0 0 0 0 0 0 0 0 0 0 0 0 0 0
0 0 0 0 0 -0 0 0 0 0 0 0 0 0 0 0 0 0 0 0 0 0 0 0 0 0 0 0 0 0 0 0 0 0 0 0 0 0 0 0 0 0 0 0
0 0 0 0 -0 0 0 0 0 0 0 0 0 0 0 0 0 0 0 0 0 0 0 0 0 0 0 -0 0 0 0 0 -0 0 0 0 0 0 0 0 0 0 0 0
0 0 0 0 0 0 0 0 0 0 0 0 0 0 0 0 0 0 0 0 0 0 0 0 0 0 0 0 0 -0 -0 -0 -0 -0 0 0 0 0 0 0 0 0 0 0
0 0 0 0 0 0 0 0 0 0 0 0 0 0 0 0 0 0 0 0 0 0 0 0 0 0 0 0 0 0 0 0 0 0 0 0 0 0 0 0 0 0 0 0
0 -0 0 0 0 0 0 0 0 0 0 0 0 0 0 0 0 0 0 0 0 0 0 0 0 0 0 0 0 0 0 0 0 0 0 0 0 0 0 0 0 0 0 0
0 0 0 0 0 0 0 0 0 0 0 0 0 0 0 0 0 0 0 0 0 0 0 0 0 0 0 0 0 0 0 0 0 0 0 0 0 0 0 0 0 0 0 0
0 0 0 0 0 0 0 0 0 0 -0 -0 -0 -0 -0 0 0 0 0 0 0 0 0 0 0 0 0 0 0 0 0 0 0 0 0 0 0 0 0 0 0 0 0 0
0 0 0 0 0 0 0 0 0 0 0 0 -0 -0 -0 -0 -0 -0 -0 -0 -0 -0 -0 -0 -0 -0 -0 0 0 0 0 0 0 0 0 0 0 0 0 0 0 0 0 0
0 0 0 0 0 0 0 0 0 0 0 0 0 0 0 -0 -0 -0 -0 -0 -0 -0 -0 -0 -0 0 0 0 0 0 0 0 0 0 0 0 0 0 0 0 0 0 0 0
Wind_Speed_500mb
43 23 41 52 47 40 35 31 38 31 16 35 46 43 40 47 19 31 39 39 39 42 41 35 40 42 42 43 45 45 46 48 51 54 53 55 56 51 46 46 45 44 45 44
31 45 45 40 45 46 48 35 36 14 9 19 31 42 40 36 40 33 31 39 38 35 35 35 37 40 46 48 52 51 50 49 54 55 54 59 60 58 51 47 50 49 50 48
50 27 42 38 40 47 46 41 29 22 16 19 19 40 39 42 44 49 42 36 33 39 39 36 35 45 43 46 50 53 55 51 52 54 44 53 45 49 55 63 61 57 51 49
38 59 37 40 44 40 46 39 23 12 31 17 18 16 43 43 39 31 39 42 47 46 39 40 40 36 40 50 43 45 47 52 55 56 58 60 63 65 67 58 56 56 52 52
35 42 48 46 43 43 34 31 26 24 16 7 18 13 32 31 25 27 29 35 42 42 45 48 42 37 38 38 47 52 54 53 56 61 68 70 70 73 66 57 59 58 59 57
17 22 46 51 39 35 13 28 17 18 16 12 39 32 21 28 23 24 20 15 15 18 22 27 32 46 49 51 55 56 57 58 60 64 70 75 78 77 75 71 59 66 67 64
17 22 33 37 39 38 37 39 13 14 13 20 26 28 35 18 2 8 6 5 4 4 8 12 14 16 26 31 38 48 57 66 69 70 74 76 78 78 79 75 70 74 75 71
21 12 35 37 43 34 49 43 15 21 20 27 11 21 29 21 31 11 3 7 7 11 9 10 18 18 22 30 36 39 40 44 53 70 73 73 69 70 74 72 70 67 69 73
7 8 39 46 34 35 49 39 34 15 5 11 19 19 7 10 8 8 8 14 19 19 19 17 18 22 22 24 25 31 39 42 45 50 63 63 65 69 69 68 64 60 60 61
6 5 7 39 36 31 36 41 21 11 14 13 20 25 13 21 24 15 20 31 32 31 35 35 39 40 35 27 21 21 26 30 31 35 42 51 59 61 64 63 62 64 63 63
6 8 4 9 19 30 19 30 25 28 17 16 14 11 6 24 25 32 35 32 24 26 29 34 42 44 46 48 42 32 25 23 22 21 21 26 36 43 45 46 47 48 49 51
8 9 15 4 11 22 35 31 41 18 21 13 4 7 15 27 27 40 31 20 18 20 23 30 35 36 35 36 38 39 36 29 24 20 17 16 17 21 25 28 31 33 37 41
3 4 7 7 7 6 21 28 38 34 15 21 12 12 21 19 24 20 16 16 14 13 19 20 23 27 29 31 32 32 32 31 28 25 23 21 19 20 22 25 28 31 36 39
6 6 5 7 10 9 8 11 15 32 14 17 23 21 26 20 14 8 14 17 14 17 15 17 19 23 26 30 31 28 25 24 18 20 23 24 25 25 28 31 33 35 38 41
4 4 4 11 8 9 13 9 6 18 20 18 23 23 25 10 11 8 8 9 10 13 15 17 22 26 29 31 31 30 30 28 24 25 25 27 28 30 32 34 38 41 44 46
9 4 3 7 6 3 6 6 5 2 3 11 7 14 12 14 3 7 9 10 14 18 19 18 19 25 29 30 33 35 34 35 37 40 44 47 48 49 49 49 48 51 53 55
12 5 5 7 11 4 7 18 23 17 16 12 16 15 7 4 3 7 14 19 25 26 26 27 31 36 42 42 38 35 36 38 39 42 43 47 50 55 60 62 65 67 66 67
9 5 6 4 4 5 7 3 8 13 10 16 13 7 6 6 6 6 8 13 17 22 27 30 35 39 42 44 45 44 43 42 41 40 40 42 49 54 58 63 68 70 72 75
6 4 3 4 4 14 2 5 1 7 4 19 17 5 13 9 2 7 14 10 14 20 27 34 39 44 46 48 51 52 50 49 49 48 48 47 49 52 58 64 66 70 73 76
2 3 4 3 5 6 3 6 8 4 7 8 14 18 16 6 6 14 8 13 18 23 29 38 42 45 48 51 55 57 58 57 57 56 56 55 53 55 58 63 68 71 71 73
5 5 12 10 7 11 14 10 8 9 5 17 16 16 13 4 4 2 12 14 20 26 35 39 44 48 51 52 56 58 60 60 61 62 60 57 57 59 58 60 64 68 73 75
11 11 8 10 10 17 14 8 11 7 19 17 9 5 4 8 12 16 18 22 26 32 36 40 46 49 51 54 57 59 60 64 66 66 67 67 64 58 58 62 64 66 69 71
8 14 4 16 12 9 11 18 21 8 8 8 17 21 19 18 19 20 24 29 32 34 37 39 44 48 47 49 51 56 59 64 67 69 69 67 66 64 61 60 60 62 64 67
10 20 8 2 19 32 30 31 28 25 22 27 33 35 33 30 24 29 32 34 37 38 39 39 42 45 48 48 51 55 59 63 66 68 69 69 68 66 63 60 58 60 64 66
16 18 14 23 33 31 41 46 50 48 45 30 33 31 26 26 29 31 33 36 37 37 39 42 47 51 52 52 53 53 58 61 64 65 66 67 67 64 64 61 60 60 62 59
41 27 22 16 21 29 10 31 52 49 56 48 37 37 37 38 35 34 34 30 33 38 43 48 50 54 54 54 53 51 55 57 60 63 63 63 65 65 63 64 65 61 62 60
Wind_Direction_500mb
204 211 215 208 214 225 221 218 228 229 195 212 239 252 240 247 208 241 235 233 228 226 229 219 216 212 210 211 210 212 213 216 215 216 219 223 229 231 230 232 236 236 240 243
211 225 224 226 221 224 231 227 217 204 13 227 226 239 256 256 254 236 239 236 236 234 232 222 218 217 218 217 219 216 217 218 220 225 225 232 232 237 236 240 240 241 242 242
221 226 222 225 228 215 224 223 211 187 198 254 265 245 232 249 252 255 246 241 242 235 237 230 228 222 221 225 227 227 224 220 223 226 223 239 231 242 241 238 242 245 247 245
233 226 207 210 220 214 218 218 224 165 165 219 231 255 224 234 237 229 240 239 241 238 240 241 237 237 237 235 231 233 236 230 228 225 226 234 241 236 245 247 248 247 244 243
231 215 211 205 213 210 227 202 188 185 196 232 201 253 248 262 245 234 236 243 241 239 242 245 250 255 243 240 249 242 237 239 238 236 237 240 239 250 251 251 248 248 246 244
252 291 203 210 215 211 191 169 180 219 213 249 224 220 238 237 225 245 253 259 251 247 251 252 253 248 249 249 252 253 251 248 249 247 245 245 247 251 252 249 242 247 247 246
233 234 220 210 193 191 179 161 164 184 200 234 205 225 235 207 322 298 315 102 354 315 319 302 291 278 268 262 261 261 259 257 259 258 254 254 255 254 254 253 246 244 250 247
211 201 219 196 193 182 191 183 172 194 195 233 202 219 231 236 259 197 313 321 1 12 346 329 306 300 287 270 263 264 265 263 258 253 252 251 253 253 251 248 248 246 249 251
259 245 190 183 188 193 199 207 216 253 41 223 174 221 244 186 200 171 84 65 49 36 23 12 341 327 321 305 296 279 271 270 265 252 247 245 245 242 244 245 244 244 242 244
303 321 257 183 197 197 200 197 192 225 181 210 184 210 200 182 157 136 102 92 71 57 49 46 48 43 36 22 0 338 322 303 287 270 259 251 248 249 248 246 245 248 248 250
81 269 138 211 197 181 188 200 206 213 232 215 195 210 2 129 136 122 107 90 70 54 45 46 45 41 37 31 24 16 7 355 341 316 295 276 265 261 260 259 257 257 253 252
54 297 223 219 309 212 199 194 201 203 201 240 271 99 108 99 113 113 105 90 71 66 53 36 25 24 21 20 16 16 12 2 350 340 335 317 293 276 266 261 259 257 257 257
13 33 291 113 85 347 214 208 204 228 247 212 173 134 134 111 126 106 60 56 64 62 22 17 13 8 4 1 1 360 359 1 355 351 346 336 317 296 281 271 265 260 258 256
325 65 341 17 8 334 133 197 239 208 211 205 213 138 169 148 133 60 23 11 9 2 16 17 4 355 346 343 345 345 341 337 336 341 346 345 339 325 313 302 291 278 269 263
10 121 107 88 82 42 3 126 10 223 222 232 210 230 168 113 31 8 344 4 12 21 22 13 358 355 350 345 341 336 330 318 307 294 295 301 300 299 299 295 289 285 279 272
357 76 342 55 26 151 149 243 165 174 235 262 270 279 277 76 339 348 15 28 44 46 36 26 13 359 360 351 342 337 328 320 312 303 299 296 294 289 287 283 283 279 275 271
359 358 336 128 352 298 230 210 198 181 195 235 232 267 147 248 341 15 14 33 30 21 19 12 3 356 351 348 343 337 330 326 320 311 305 301 296 288 283 282 282 282 278 273
335 334 355 25 314 221 56 356 347 250 234 223 243 190 162 204 140 22 65 66 30 7 357 353 346 343 341 337 336 336 332 324 317 312 309 302 291 288 286 282 278 278 278 278
272 317 50 325 287 319 40 96 167 205 257 217 227 206 160 147 293 154 122 47 6 346 340 338 336 332 330 328 327 326 326 325 322 319 311 305 301 297 289 285 285 282 279 276
359 242 291 179 261 244 27 91 335 240 262 138 157 144 135 140 221 116 132 315 323 322 323 322 321 320 318 318 317 317 318 320 320 319 316 313 306 298 294 292 288 281 277 276
123 183 226 227 267 273 254 205 351 192 110 113 126 128 125 95 341 344 290 301 303 306 308 309 308 308 309 309 310 311 312 313 313 313 312 311 309 306 299 292 289 288 285 280
189 184 196 210 221 258 233 101 205 104 144 159 142 151 275 259 243 244 265 284 291 298 302 303 301 301 303 305 305 306 309 310 310 311 312 312 310 306 303 301 297 292 288 285
249 214 224 205 217 261 201 241 225 199 157 232 274 282 278 260 248 245 271 285 292 297 300 300 300 300 300 299 300 300 302 303 304 305 306 307 307 307 304 298 294 290 288 285
243 237 232 165 238 241 244 234 232 223 240 278 281 285 279 265 245 263 279 288 297 301 302 303 303 303 304 306 305 305 305 303 303 303 304 305 305 305 304 301 297 292 288 286
237 161 213 248 266 273 265 248 244 250 256 252 272 275 275 260 271 280 287 295 299 302 306 307 307 304 305 305 305 306 304 302 302 302 303 305 306 306 305 301 299 294 290 285
214 223 213 221 225 210 269 246 237 249 245 252 253 265 264 270 273 276 282 286 297 305 309 308 306 306 308 305 304 306 303 304 304 304 305 306 305 305 304 303 301 297 294 290
Wind_Speed_850mb
43 23 41 52 47 40 35 31 38 31 16 35 46 43 40 47 19 31 39 39 39 42 41 35 40 42 42 43 45 45 46 48 51 54 53 55 56 51 46 46 45 44 45 44
31 45 45 40 45 46 48 35 36 14 9 19 31 42 40 36 40 33 31 39 38 35 35 35 37 40 46 48 52 51 50 49 54 55 54 59 60 58 51 47 50 49 50 48
50 27 42 38 40 47 46 41 29 22 16 19 19 40 39 42 44 49 42 36 33 39 39 36 35 45 43 46 50 53 55 51 52 54 44 53 45 49 55 63 61 57 51 49
38 59 37 40 44 40 46 39 23 12 31 17 18 16 43 43 39 31 39 42 47 46 39 40 40 36 40 50 43 45 47 52 55 56 58 60 63 65 67 58 56 56 52 52
35 42 48 46 43 43 34 31 26 24 16 7 18 13 32 31 25 27 29 35 42 42 45 48 42 37 38 38 47 52 54 53 56 61 68 70 70 73 66 57 59 58 59 57
17 22 46 51 39 35 13 28 17 18 16 12 39 32 21 28 23 24 20 15 15 18 22 27 32 46 49 51 55 56 57 58 60 64 70 75 78 77 75 71 59 66 67 64
17 22 33 37 39 38 37 39 13 14 13 20 26 28 35 18 2 8 6 5 4 4 8 12 14 16 26 31 38 48 57 66 69 70 74 76 78 78 79 75 70 74 75 71
21 12 35 37 43 34 49 43 15 21 20 27 11 21 29 21 31 11 3 7 7 11 9 10 18 18 22 30 36 39 40 44 53 70 73 73 69 70 74 72 70 67 69 73
7 8 39 46 34 35 49 39 34 15 5 11 19 19 7 10 8 8 8 14 19 19 19 17 18 22 22 24 25 31 39 42 45 50 63 63 65 69 69 68 64 60 60 61
6 5 7 39 36 31 36 41 21 11 14 13 20 25 13 21 24 15 20 31 32 31 35 35 39 40 35 27 21 21 26 30 31 35 42 51 59 61 64 63 62 64 63 63
6 8 4 9 19 30 19 30 25 28 17 16 14 11 6 24 25 32 35 32 24 26 29 34 42 44 46 48 42 32 25 23 22 21 21 26 36 43 45 46 47 48 49 51
8 9 15 4 11 22 35 31 41 18 21 13 4 7 15 27 27 40 31 20 18 20 23 30 35 36 35 36 38 39 36 29 24 20 17 16 17 21 25 28 31 33 37 41
3 4 7 7 7 6 21 28 38 34 15 21 12 12 21 19 24 20 16 16 14 13 19 20 23 27 29 31 32 32 32 31 28 25 23 21 19 20 22 25 28 31 36 39
6 6 5 7 10 9 8 11 15 32 14 17 23 21 26 20 14 8 14 17 14 17 15 17 19 23 26 30 31 28 25 24 18 20 23 24 25 25 28 31 33 35 38 41
4 4 4 11 8 9 13 9 6 18 20 18 23 23 25 10 11 8 8 9 10 13 15 17 22 26 29 31 31 30 30 28 24 25 25 27 28 30 32 34 38 41 44 46
9 4 3 7 6 3 6 6 5 2 3 11 7 14 12 14 3 7 9 10 14 18 19 18 19 25 29 30 33 35 34 35 37 40 44 47 48 49 49 49 48 51 53 55
12 5 5 7 11 4 7 18 23 17 16 12 16 15 7 4 3 7 14 19 25 26 26 27 31 36 42 42 38 35 36 38 39 42 43 47 50 55 60 62 65 67 66 67
9 5 6 4 4 5 7 3 8 13 10 16 13 7 6 6 6 6 8 13 17 22 27 30 35 39 42 44 45 44 43 42 41 40 40 42 49 54 58 63 68 70 72 75
6 4 3 4 4 14 2 5 1 7 4 19 17 5 13 9 2 7 14 10 14 20 27 34 39 44 46 48 51 52 50 49 49 48 48 47 49 52 58 64 66 70 73 76
2 3 4 3 5 6 3 6 8 4 7 8 14 18 16 6 6 14 8 13 18 23 29 38 42 45 48 51 55 57 58 57 57 56 56 55 53 55 58 63 68 71 71 73
5 5 12 10 7 11 14 10 8 9 5 17 16 16 13 4 4 2 12 14 20 26 35 39 44 48 51 52 56 58 60 60 61 62 60 57 57 59 58 60 64 68 73 75
11 11 8 10 10 17 14 8 11 7 19 17 9 5 4 8 12 16 18 22 26 32 36 40 46 49 51 54 57 59 60 64 66 66 67 67 64 58 58 62 64 66 69 71
8 14 4 16 12 9 11 18 21 8 8 8 17 21 19 18 19 20 24 29 32 34 37 39 44 48 47 49 51 56 59 64 67 69 69 67 66 64 61 60 60 62 64 67
10 20 8 2 19 32 30 31 28 25 22 27 33 35 33 30 24 29 32 34 37 38 39 39 42 45 48 48 51 55 59 63 66 68 69 69 68 66 63 60 58 60 64 66
16 18 14 23 33 31 41 46 50 48 45 30 33 31 26 26 29 31 33 36 37 37 39 42 47 51 52 52 53 53 58 61 64 65 66 67 67 64 64 61 60 60 62 59
41 27 22 16 21 29 10 31 52 49 56 48 37 37 37 38 35 34 34 30 33 38 43 48 50 54 54 54 53 51 55 57 60 63 63 63 65 65 63 64 65 61 62 60
Wind_Direction_850mb
204 211 215 208 214 225 221 218 228 229 195 212 239 252 240 247 208 241 235 233 228 226 229 219 216 212 210 211 210 212 213 216 215 216 219 223 229 231 230 232 236 236 240 243
211 225 224 226 221 224 231 227 217 204 13 227 226 239 256 256 254 236 239 236 236 234 232 222 218 217 218 217 219 216 217 218 220 225 225 232 232 237 236 240 240 241 242 242
221 226 222 225 228 215 224 223 211 187 198 254 265 245 232 249 252 255 246 241 242 235 237 230 228 222 221 225 227 227 224 220 223 226 223 239 231 242 241 238 242 245 247 245
233 226 207 210 220 214 218 218 224 165 165 219 231 255 224 234 237 229 240 239 241 238 240 241 237 237 237 235 231 233 236 230 228 225 226 234 241 236 245 247 248 247 244 243
231 215 211 205 213 210 227 202 188 185 196 232 201 253 248 262 245 234 236 243 241 239 242 245 250 255 243 240 249 242 237 239 238 236 237 240 239 250 251 251 248 248 246 244
252 291 203 210 215 211 191 169 180 219 213 249 224 220 238 237 225 245 253 259 251 247 251 252 253 248 249 249 252 253 251 248 249 247 245 245 247 251 252 249 242 247 247 246
233 234 220 210 193 191 179 161 164 184 200 234 205 225 235 207 322 298 315 102 354 315 319 302 291 278 268 262 261 261 259 257 259 258 254 254 255 254 254 253 246 244 250 247
211 201 219 196 193 182 191 183 172 194 195 233 202 219 231 236 259 197 313 321 1 12 346 329 306 300 287 270 263 264 265 263 258 253 252 251 253 253 251 248 248 246 249 251
259 245 190 183 188 193 199 207 216 253 41 223 174 221 244 186 200 171 84 65 49 36 23 12 341 327 321 305 296 279 271 270 265 252 247 245 245 242 244 245 244 244 242 244
303 321 257 183 197 197 200 197 192 225 181 210 184 210 200 182 157 136 102 92 71 57 49 46 48 43 36 22 0 338 322 303 287 270 259 251 248 249 248 246 245 248 248 250
81 269 138 211 197 181 188 200 206 213 232 215 195 210 2 129 136 122 107 90 70 54 45 46 45 41 37 31 24 16 7 355 341 316 295 276 265 261 260 259 257 257 253 252
54 297 223 219 309 212 199 194 201 203 201 240 271 99 108 99 113 113 105 90 71 66 53 36 25 24 21 20 16 16 12 2 350 340 335 317 293 276 266 261 259 257 257 257
13 33 291 113 85 347 214 208 204 228 247 212 173 134 134 111 126 106 60 56 64 62 22 17 13 8 4 1 1 360 359 1 355 351 346 336 317 296 281 271 265 260 258 256
325 65 341 17 8 334 133 197 239 208 211 205 213 138 169 148 133 60 23 11 9 2 16 17 4 355 346 343 345 345 341 337 336 341 346 345 339 325 313 302 291 278 269 263
10 121 107 88 82 42 3 126 10 223 222 232 210 230 168 113 31 8 344 4 12 21 22 13 358 355 350 345 341 336 330 318 307 294 295 301 300 299 299 295 289 285 279 272
357 76 342 55 26 151 149 243 165 174 235 262 270 279 277 76 339 348 15 28 44 46 36 26 13 359 360 351 342 337 328 320 312 303 299 296 294 289 287 283 283 279 275 271
359 358 336 128 352 298 230 210 198 181 195 235 232 267 147 248 341 15 14 33 30 21 19 12 3 356 351 348 343 337 330 326 320 311 305 301 296 288 283 282 282 282 278 273
335 334 355 25 314 221 56 356 347 250 234 223 243 190 162 204 140 22 65 66 30 7 357 353 346 343 341 337 336 336 332 324 317 312 309 302 291 288 286 282 278 278 278 278
272 317 50 325 287 319 40 96 167 205 257 217 227 206 160 147 293 154 122 47 6 346 340 338 336 332 330 328 327 326 326 325 322 319 311 305 301 297 289 285 285 282 279 276
359 242 291 179 261 244 27 91 335 240 262 138 157 144 135 140 221 116 132 315 323 322 323 322 321 320 318 318 317 317 318 320 320 319 316 313 306 298 294 292 288 281 277 276
123 183 226 227 267 273 254 205 351 192 110 113 126 128 125 95 341 344 290 301 303 306 308 309 308 308 309 309 310 311 312 313 313 313 312 311 309 306 299 292 289 288 285 280
189 184 196 210 221 258 233 101 205 104 144 159 142 151 275 259 243 244 265 284 291 298 302 303 301 301 303 305 305 306 309 310 310 311 312 312 310 306 303 301 297 292 288 285
249 214 224 205 217 261 201 241 225 199 157 232 274 282 278 260 248 245 271 285 292 297 300 300 300 300 300 299 300 300 302 303 304 305 306 307 307 307 304 298 294 290 288 285
243 237 232 165 238 241 244 234 232 223 240 278 281 285 279 265 245 263 279 288 297 301 302 303 303 303 304 306 305 305 305 303 303 303 304 305 305 305 304 301 297 292 288 286
237 161 213 248 266 273 265 248 244 250 256 252 272 275 275 260 271 280 287 295 299 302 306 307 307 304 305 305 305 306 304 302 302 302 303 305 306 306 305 301 299 294 290 285
214 223 213 221 225 210 269 246 237 249 245 252 253 265 264 270 273 276 282 286 297 305 309 308 306 306 308 305 304 306 303 304 304 304 305 306 305 305 304 303 301 297 294 290